When you browse on this site, cookies collect data to enhance your experience and personalize the content and advertising you see.
Visit our Privacy Policy to learn more. By continuing to use the site, you agree to this use of cookies and data.

Hourly Weather Whitehorse

Today, 14 July, Tuesday

Time Temperature Precipitation Wind Pressure Humidity
00:00 +9°C° 0 mm 2 mps 687 mmHg 75%
01:00 +8°C° 0 mm 2 mps 687 mmHg 79%
02:00 +8°C° 0 mm 1 mps 686 mmHg 84%
03:00 +7°C° 0 mm 1 mps 686 mmHg 88%
04:00 +8°C° 0 mm 1 mps 686 mmHg 83%
05:00 +9°C° 0 mm 1 mps 686 mmHg 78%
06:00 +9°C° 0 mm 2 mps 685 mmHg 74%
07:00 +9°C° 0 mm 2 mps 685 mmHg 74%
08:00 +11°C° 0 mm 1 mps 685 mmHg 74%
09:00 +11°C° 0 mm 1 mps 685 mmHg 74%
10:00 +11°C° 0.1 mm 1 mps 685 mmHg 76%
11:00 +11°C° 0.1 mm 1 mps 685 mmHg 78%
12:00 +11°C° 0.1 mm 1 mps 685 mmHg 80%
13:00 +11°C° 0.1 mm 1 mps 685 mmHg 81%
14:00 +11°C° 0.1 mm 1 mps 685 mmHg 82%
15:00 +11°C° 0.1 mm 1 mps 685 mmHg 83%
16:00 +11°C° 0.1 mm 1 mps 685 mmHg 83%
17:00 +11°C° 0.1 mm 1 mps 685 mmHg 84%
18:00 +11°C° 0.1 mm 1 mps 685 mmHg 84%
19:00 +11°C° 0.1 mm 1 mps 685 mmHg 88%
20:00 +10°C° 0.1 mm 1 mps 685 mmHg 91%
21:00 +10°C° 0.1 mm 1 mps 685 mmHg 95%
22:00 +10°C° 0.2 mm 1 mps 685 mmHg 95%
23:00 +9°C° 0.2 mm 1 mps 685 mmHg 96%

Tomorrow, 15 July, Wednesday

Time Temperature Precipitation Wind Pressure Humidity
00:00 +9°C° 0.2 mm 1 mps 685 mmHg 97%
01:00 +9°C° 0.3 mm 1 mps 685 mmHg 96%
02:00 +9°C° 0.3 mm 1 mps 685 mmHg 96%
03:00 +8°C° 0.3 mm 1 mps 685 mmHg 95%
04:00 +9°C° 0.5 mm 1 mps 685 mmHg 94%
05:00 +9°C° 0.5 mm 1 mps 685 mmHg 93%
06:00 +9°C° 0.5 mm 1 mps 685 mmHg 92%
07:00 +10°C° 0.3 mm 1 mps 685 mmHg 90%
08:00 +10°C° 0.3 mm 1 mps 685 mmHg 89%
09:00 +10°C° 0.3 mm 1 mps 684 mmHg 87%
10:00 +12°C° 0.1 mm 1 mps 684 mmHg 80%
11:00 +13°C° 0.1 mm 1 mps 684 mmHg 73%
12:00 +15°C° 0.1 mm 1 mps 684 mmHg 67%
13:00 +16°C° 0.2 mm 1 mps 684 mmHg 61%
14:00 +18°C° 0.2 mm 1 mps 684 mmHg 55%
15:00 +17°C° 0.2 mm 0 mps 684 mmHg 49%
16:00 +19°C° 0.1 mm 1 mps 684 mmHg 52%
17:00 +18°C° 0.1 mm 1 mps 683 mmHg 55%
18:00 +16°C° 0.1 mm 1 mps 683 mmHg 58%
19:00 +15°C° 0.2 mm 1 mps 683 mmHg 66%
20:00 +14°C° 0.2 mm 1 mps 682 mmHg 74%
21:00 +12°C° 0.2 mm 1 mps 682 mmHg 82%
22:00 +12°C° 0.1 mm 1 mps 682 mmHg 84%
23:00 +12°C° 0.1 mm 1 mps 682 mmHg 86%

Day after tomorrow, 16 July, Thursday

Time Temperature Precipitation Wind Pressure Humidity
00:00 +11°C° 0.1 mm 1 mps 683 mmHg 88%
01:00 +11°C° 0 mm 1 mps 682 mmHg 89%
02:00 +11°C° 0 mm 1 mps 682 mmHg 89%
03:00 +11°C° 0 mm 1 mps 682 mmHg 90%
04:00 +11°C° 0 mm 1 mps 683 mmHg 87%
05:00 +12°C° 0 mm 1 mps 683 mmHg 85%
06:00 +13°C° 0 mm 1 mps 683 mmHg 83%
07:00 +14°C° 0 mm 1 mps 683 mmHg 76%
08:00 +16°C° 0 mm 1 mps 683 mmHg 69%
09:00 +18°C° 0 mm 1 mps 683 mmHg 61%
10:00 +20°C° 0.1 mm 1 mps 683 mmHg 55%
11:00 +21°C° 0.1 mm 1 mps 683 mmHg 48%
12:00 +21°C° 0.1 mm 2 mps 683 mmHg 41%
13:00 +21°C° 0.2 mm 2 mps 683 mmHg 40%
14:00 +21°C° 0.2 mm 2 mps 683 mmHg 40%
15:00 +21°C° 0.2 mm 2 mps 683 mmHg 39%
16:00 +22°C° 0.1 mm 1 mps 683 mmHg 41%
17:00 +22°C° 0.1 mm 1 mps 683 mmHg 42%
18:00 +22°C° 0.1 mm 1 mps 683 mmHg 44%
19:00 +20°C° 0.1 mm 1 mps 683 mmHg 51%
20:00 +18°C° 0.1 mm 1 mps 683 mmHg 59%
21:00 +15°C° 0.1 mm 1 mps 683 mmHg 67%
22:00 +14°C° 0 mm 2 mps 683 mmHg 73%
23:00 +13°C° 0 mm 2 mps 684 mmHg 79%

17 July, Friday

Time Temperature Precipitation Wind Pressure Humidity
00:00 +12°C° 0 mm 2 mps 684 mmHg 85%
01:00 +10°C° 0 mm 2 mps 684 mmHg 88%
02:00 +9°C° 0 mm 2 mps 684 mmHg 90%
03:00 +9°C° 0 mm 2 mps 684 mmHg 93%
04:00 +10°C° 0 mm 2 mps 685 mmHg 88%
05:00 +12°C° 0 mm 2 mps 685 mmHg 83%
06:00 +13°C° 0 mm 2 mps 685 mmHg 78%
07:00 +14°C° 0 mm 2 mps 686 mmHg 71%
08:00 +15°C° 0 mm 2 mps 686 mmHg 63%
09:00 +17°C° 0 mm 2 mps 686 mmHg 56%
10:00 +18°C° 0 mm 2 mps 686 mmHg 51%
11:00 +18°C° 0 mm 3 mps 687 mmHg 46%
12:00 +19°C° 0 mm 3 mps 687 mmHg 42%
13:00 +19°C° 0 mm 4 mps 687 mmHg 41%
14:00 +19°C° 0 mm 4 mps 687 mmHg 40%
15:00 +19°C° 0 mm 4 mps 687 mmHg 40%
16:00 +19°C° 0 mm 4 mps 687 mmHg 41%
17:00 +18°C° 0 mm 4 mps 687 mmHg 43%
18:00 +18°C° 0 mm 4 mps 687 mmHg 45%
19:00 +16°C° 0 mm 3 mps 687 mmHg 54%
20:00 +13°C° 0 mm 3 mps 687 mmHg 63%
21:00 +12°C° 0 mm 2 mps 687 mmHg 72%
22:00 +10°C° 0 mm 2 mps 687 mmHg 76%
23:00 +9°C° 0 mm 2 mps 687 mmHg 81%

18 July, Saturday

Time Temperature Precipitation Wind Pressure Humidity
00:00 +8°C° 0 mm 2 mps 687 mmHg 85%
01:00 +8°C° 0 mm 2 mps 688 mmHg 86%
02:00 +7°C° 0 mm 2 mps 688 mmHg 87%
03:00 +7°C° 0 mm 2 mps 688 mmHg 88%
04:00 +9°C° 0 mm 1 mps 689 mmHg 83%
05:00 +10°C° 0 mm 1 mps 689 mmHg 78%
06:00 +12°C° 0 mm 1 mps 689 mmHg 72%
07:00 +13°C° 0 mm 1 mps 689 mmHg 65%
08:00 +15°C° 0 mm 1 mps 690 mmHg 58%
09:00 +18°C° 0 mm 1 mps 690 mmHg 51%
10:00 +18°C° 0 mm 2 mps 690 mmHg 48%
11:00 +19°C° 0 mm 2 mps 690 mmHg 45%
12:00 +20°C° 0 mm 2 mps 690 mmHg 42%
13:00 +20°C° 0 mm 2 mps 690 mmHg 42%
14:00 +20°C° 0 mm 3 mps 689 mmHg 42%
15:00 +20°C° 0 mm 3 mps 689 mmHg 42%
16:00 +19°C° 0 mm 3 mps 689 mmHg 44%
17:00 +19°C° 0 mm 3 mps 689 mmHg 45%
18:00 +18°C° 0 mm 3 mps 689 mmHg 47%
19:00 +16°C° 0 mm 3 mps 689 mmHg 55%
20:00 +13°C° 0 mm 3 mps 689 mmHg 63%
21:00 +13°C° 0 mm 2 mps 689 mmHg 70%
22:00 +10°C° 0 mm 2 mps 689 mmHg 77%
23:00 +9°C° 0 mm 2 mps 689 mmHg 83%

19 July, Sunday

Time Temperature Precipitation Wind Pressure Humidity
00:00 +8°C° 0 mm 2 mps 689 mmHg 89%
01:00 +8°C° 0 mm 2 mps 689 mmHg 90%
02:00 +7°C° 0 mm 2 mps 689 mmHg 91%
03:00 +7°C° 0 mm 2 mps 689 mmHg 93%
04:00 +8°C° 0 mm 2 mps 689 mmHg 88%
05:00 +10°C° 0 mm 2 mps 689 mmHg 83%
06:00 +12°C° 0 mm 2 mps 689 mmHg 78%
07:00 +14°C° 0 mm 2 mps 690 mmHg 73%
08:00 +14°C° 0 mm 3 mps 690 mmHg 67%
09:00 +17°C° 0 mm 3 mps 690 mmHg 62%
10:00 +18°C° 0.1 mm 3 mps 690 mmHg 59%
11:00 +18°C° 0.1 mm 3 mps 690 mmHg 57%
12:00 +19°C° 0.1 mm 3 mps 690 mmHg 54%
13:00 +19°C° 0.1 mm 4 mps 690 mmHg 53%
14:00 +20°C° 0.1 mm 4 mps 690 mmHg 52%
15:00 +20°C° 0.1 mm 4 mps 690 mmHg 51%
16:00 +19°C° 0 mm 4 mps 689 mmHg 52%
17:00 +19°C° 0 mm 4 mps 689 mmHg 53%
18:00 +18°C° 0 mm 4 mps 689 mmHg 54%
19:00 +16°C° 0 mm 3 mps 689 mmHg 62%
20:00 +13°C° 0 mm 3 mps 689 mmHg 70%
21:00 +12°C° 0 mm 3 mps 689 mmHg 78%
22:00 +12°C° 0 mm 2 mps 689 mmHg 83%
23:00 +10°C° 0 mm 2 mps 689 mmHg 87%
Show more